x

Tillamook, Or - 85 Nm Wnw Of Tillamook, Or (46089) Wave Buoy

7:50am - Tue 29th Jul 2014 All times are PDT. -7 hours from GMT.

  • Sig Wave height 3.0ft
  • Swell Direction
  • Peak Period 8s
  • Average Period 5s
  • Wind
    9mph, 11mph gusts
  • Sea Temp 63°f
  • Air Temp 62°f
  • Sea Pressure 1022.6mb
  • Tillamook, Or - 85 Nm Wnw Of Tillamook, Or
  • Tillamook, Or - 85 Nm Wnw Of Tillamook, Or

More Historic Weather Station data

Upgrade to MSW Pro to gain access to the past 30 days of data for over 8000 Wavebouys and Weather Stations around the globe.

Join Pro

Comparision Forecast

View Surf forecast
   
Tue 07/29 7:50am 3ft 8s 5s 9 11 mph 1022.6mb 63f 62f
6:50am 3ft 8s 4s 11 16 mph 1022.5mb 63f 62f
5:50am 3.5ft 5s 4s 11 16 mph 1022.2mb 63f 62f
4:50am 3.5ft 5s 4s 11 16 mph 1022mb 63f 61f
3:50am 3.5ft 4s 4s 11 16 mph 1021.9mb 63f 60f
2:50am 3.5ft 5s 4s 11 16 mph 1021.7mb 64f 60f
1:50am 3.5ft 5s 4s 11 16 mph 1021.5mb 64f 60f
12:50am 3.5ft 5s 5s 13 18 mph 1021.4mb 64f 61f
Mon 07/28 11:50pm 3.5ft 8s 4s 13 18 mph 1021.4mb 64f 61f
10:50pm 4ft 5s 4s 13 18 mph 1021.8mb 64f 61f
9:50pm  -   -   -  13 20 mph 1021.7mb 64f 61f
8:50pm 4.5ft 5s 4s 16 20 mph 1021.4mb 64f 61f
7:50pm 4.5ft 5s 5s 16 22 mph 1021.4mb 64f 62f
6:50pm 4.5ft 4s 4s 16 22 mph 1021.3mb 64f 62f
5:50pm 4.5ft 5s 4s 16 20 mph 1021.4mb 64f 62f
4:50pm 4ft 5s 5s 13 18 mph 1021.5mb 64f 63f
3:50pm 4ft 8s 5s 13 20 mph 1021.9mb 64f 63f
2:50pm 4ft 8s 4s 13 18 mph 1022.1mb 64f 62f
1:50pm 3.5ft 8s 4s 13 18 mph 1021.9mb 64f 62f
12:50pm 3.5ft 8s 4s 13 18 mph 1022.1mb 64f 62f
11:50am 3.5ft 8s 5s 13 18 mph 1022mb 64f 62f
10:50am 4ft 8s 5s 13 18 mph 1021.9mb 64f 62f
9:50am 3.5ft 8s 5s 13 16 mph 1021.9mb 63f 60f
8:50am 4ft 6s 5s 13 18 mph 1021.9mb 63f 59f
7:50am 4ft 5s 5s 11 16 mph 1021.8mb 63f 59f
6:50am 4.5ft 5s 5s 13 18 mph 1021.7mb 63f 59f
5:50am 4.5ft 5s 5s 11 16 mph 1021.5mb 63f 59f
4:50am 5ft 6s 5s 13 18 mph 1021.2mb 63f 59f
3:50am 5ft 6s 5s 13 18 mph 1021.1mb 63f 60f
2:50am 5ft 5s 5s 13 20 mph 1021.3mb 63f 60f
1:50am 5ft 5s 5s 13 20 mph 1021.1mb 63f 60f
12:50am 5.5ft 6s 5s 16 20 mph 1021.2mb 63f 60f
Sun 07/27 11:50pm 5ft 5s 5s 16 20 mph 1021.3mb 63f 60f
10:50pm 5ft 6s 5s 16 20 mph 1021.4mb 63f 60f
9:50pm 4.5ft 5s 5s 16 20 mph 1021.7mb 64f 60f
8:50pm 4.5ft 5s 5s 16 22 mph 1021.5mb 64f 61f
7:50pm 4.5ft 5s 5s 16 20 mph 1021.6mb 64f 60f
6:50pm 4.5ft 5s 5s 16 20 mph 1021.6mb 64f 61f
5:50pm 4.5ft 5s 5s 16 20 mph 1021.7mb 64f 61f
4:50pm 4.5ft 4s 4s 16 20 mph 1021.9mb 64f 61f
3:50pm 4.5ft 9s 5s 16 20 mph 1022mb 64f 62f
2:50pm 4.5ft 8s 5s 16 20 mph 1022.4mb 64f 61f
1:50pm 4.5ft 8s 5s 16 20 mph 1022.5mb 64f 62f
12:50pm 4.5ft 8s 5s 13 18 mph 1022.3mb 64f 62f
11:50am 4ft 7s 5s 13 18 mph 1022.8mb 64f 62f
10:50am 4.5ft 8s 5s 13 18 mph 1023mb 64f 62f
9:50am 4ft 7s 5s 13 18 mph 1023mb 64f 62f
8:50am 4.5ft 8s 5s 11 18 mph 1023.1mb 64f 62f
7:50am 4.5ft 8s 5s 13 18 mph 1023mb 64f 61f
6:50am 3.5ft 8s 5s 13 18 mph 1022.8mb 64f 62f
5:50am 4ft 8s 5s 13 18 mph 1022.7mb 64f 62f
4:50am 3.5ft 8s 5s 11 16 mph 1022.6mb 64f 62f
3:50am 3.5ft 8s 5s 13 18 mph 1022.5mb 64f 62f
2:50am 3.5ft 9s 5s 11 16 mph 1022.6mb 64f 62f
1:50am 3ft 7s 4s 13 18 mph 1022.8mb 64f 62f
12:50am 3ft 8s 4s 13 18 mph 1022.6mb 64f 62f
Sat 07/26 11:50pm 3ft 8s 4s 13 16 mph 1022.7mb 64f 62f
10:50pm 3ft 7s 4s 13 16 mph 1022.8mb 64f 62f
9:50pm 3ft 8s 5s 13 20 mph 1022.7mb 64f 62f
8:50pm 3ft 7s 4s 13 16 mph 1022.4mb 64f 62f
7:50pm 2.5ft 7s 4s 11 13 mph 1022.7mb 65f 62f
6:50pm 2.5ft 7s 5s 11 16 mph 1022.8mb 65f 62f
5:50pm 2.5ft 6s 5s 9 11 mph 1023.2mb 64f 62f
4:50pm 2.5ft 6s 5s 9 11 mph 1023.4mb 64f 62f
3:50pm 2.5ft 7s 6s 9 11 mph 1023.1mb 64f 62f
2:50pm 2.5ft 7s 5s 9 11 mph 1023.2mb 64f 62f
1:50pm 2.5ft 7s 5s 7 9 mph 1023.4mb 64f 61f
12:50pm 2.5ft 6s 5s 9 11 mph 1023.4mb 64f 61f
11:50am 2.5ft 6s 5s 7 11 mph 1023.3mb 64f 61f
10:50am 2.5ft 7s 5s 7 9 mph 1023mb 64f 61f
9:50am 2.5ft 6s 5s 9 11 mph 1022.9mb 64f 61f
8:50am 2.5ft 7s 5s 11 13 mph 1022.5mb 64f 61f
7:50am 2.5ft 6s 5s 9 11 mph 1022.2mb 64f 61f
6:50am 2.5ft 7s 5s 9 13 mph 1022mb 64f 61f
5:50am 2.5ft 7s 5s 9 11 mph 1021.7mb 64f 61f
4:50am 2.5ft 6s 5s 9 11 mph 1021.4mb 64f 61f
3:50am 2.5ft 7s 5s 9 11 mph 1021.2mb 64f 60f
2:50am 2.5ft 7s 5s 9 11 mph 1021.1mb 64f 61f
1:50am 2.5ft 6s 5s 9
mph
1020.9mb 64f 61f
12:50am 2.5ft 6s 5s 7 9 mph 1021mb 64f 61f
Fri 07/25 11:50pm 2.5ft 6s 6s 7 9 mph 1021.1mb 64f 61f
10:50pm 2.5ft 6s 6s 7 9 mph 1021.2mb 64f 62f
9:50pm 2.5ft 7s 6s 7
mph
1021mb 65f 62f
8:50pm 2.5ft 7s 6s 7
mph
1020.7mb 65f 62f
7:50pm 2.5ft 7s 6s 4 7 mph 1020.7mb 66f 62f
6:50pm 2.5ft 7s 6s 4
mph
1021mb 66f 63f
5:50pm 2.5ft 7s 6s 4 7 mph 1021.3mb 67f 63f
4:50pm 2.5ft 7s 6s 2 4 mph 1021.5mb 68f 64f
3:50pm 2.5ft 7s 6s 2 4 mph 1021.7mb 67f 63f